• In Deutschland
  • Länderverzeichnis
  • Für 7 Tage
  • Wassertemperatur
  • Satellitenkarten
  • Wetterkarte
  • Widgets
  • user-avatar
    Anmelden

    Stündliche Wetter Adelaide

    Heute, 29 Mai, Montag

    Zeit Temperatur Niederschläge Wind Luftdruck Luftfeuchtigkeit
    00:00 +10°C° 0 mm 2 m/S 761 mmHg 76%
    01:00 +10°C° 0 mm 2 m/S 761 mmHg 78%
    02:00 +10°C° 0 mm 2 m/S 761 mmHg 80%
    03:00 +10°C° 0 mm 2 m/S 761 mmHg 83%
    04:00 +10°C° 0 mm 2 m/S 761 mmHg 84%
    05:00 +10°C° 0 mm 2 m/S 761 mmHg 86%
    06:00 +12°C° 0 mm 2 m/S 762 mmHg 87%
    07:00 +12°C° 0,1 mm 3 m/S 762 mmHg 85%
    08:00 +13°C° 0,1 mm 3 m/S 762 mmHg 82%
    09:00 +14°C° 0,1 mm 4 m/S 762 mmHg 79%
    10:00 +14°C° 0,2 mm 4 m/S 762 mmHg 79%
    11:00 +14°C° 0,2 mm 3 m/S 762 mmHg 79%
    12:00 +16°C° 0,2 mm 3 m/S 762 mmHg 79%
    13:00 +16°C° 0,2 mm 3 m/S 762 mmHg 77%
    14:00 +16°C° 0,2 mm 3 m/S 762 mmHg 75%
    15:00 +16°C° 0,2 mm 3 m/S 761 mmHg 73%
    16:00 +14°C° 0 mm 3 m/S 762 mmHg 77%
    17:00 +14°C° 0 mm 3 m/S 762 mmHg 81%
    18:00 +13°C° 0 mm 3 m/S 762 mmHg 85%
    19:00 +13°C° 0 mm 3 m/S 763 mmHg 85%
    20:00 +12°C° 0 mm 3 m/S 763 mmHg 85%
    21:00 +12°C° 0 mm 3 m/S 763 mmHg 86%
    22:00 +12°C° 0 mm 3 m/S 763 mmHg 86%
    23:00 +12°C° 0 mm 3 m/S 763 mmHg 86%

    Morgen, 30 Mai, Dienstag

    Zeit Temperatur Niederschläge Wind Luftdruck Luftfeuchtigkeit
    00:00 +12°C° 0 mm 3 m/S 763 mmHg 87%
    01:00 +12°C° 0,1 mm 3 m/S 763 mmHg 87%
    02:00 +12°C° 0,1 mm 3 m/S 764 mmHg 88%
    03:00 +12°C° 0,1 mm 3 m/S 764 mmHg 89%
    04:00 +12°C° 0,2 mm 4 m/S 764 mmHg 89%
    05:00 +12°C° 0,2 mm 4 m/S 764 mmHg 89%
    06:00 +12°C° 0,2 mm 4 m/S 765 mmHg 89%
    07:00 +13°C° 0 mm 4 m/S 766 mmHg 83%
    08:00 +13°C° 0 mm 5 m/S 766 mmHg 76%
    09:00 +13°C° 0 mm 5 m/S 767 mmHg 70%
    10:00 +14°C° 0 mm 5 m/S 767 mmHg 64%
    11:00 +14°C° 0 mm 5 m/S 767 mmHg 59%
    12:00 +15°C° 0 mm 4 m/S 767 mmHg 53%
    13:00 +14°C° 0 mm 4 m/S 767 mmHg 52%
    14:00 +14°C° 0 mm 4 m/S 767 mmHg 52%
    15:00 +13°C° 0 mm 4 m/S 767 mmHg 51%
    16:00 +12°C° 0 mm 4 m/S 768 mmHg 55%
    17:00 +11°C° 0 mm 3 m/S 768 mmHg 60%
    18:00 +10°C° 0 mm 3 m/S 769 mmHg 64%
    19:00 +9°C° 0 mm 3 m/S 769 mmHg 66%
    20:00 +9°C° 0 mm 3 m/S 770 mmHg 68%
    21:00 +9°C° 0 mm 3 m/S 770 mmHg 70%
    22:00 +8°C° 0 mm 2 m/S 770 mmHg 72%
    23:00 +8°C° 0 mm 2 m/S 770 mmHg 75%

    übermorgen, 31 Mai, Mittwoch

    Zeit Temperatur Niederschläge Wind Luftdruck Luftfeuchtigkeit
    00:00 +8°C° 0 mm 2 m/S 770 mmHg 77%
    01:00 +8°C° 0 mm 2 m/S 771 mmHg 78%
    02:00 +7°C° 0 mm 2 m/S 771 mmHg 80%
    03:00 +7°C° 0 mm 2 m/S 771 mmHg 81%
    04:00 +6°C° 0 mm 2 m/S 771 mmHg 81%
    05:00 +6°C° 0 mm 2 m/S 771 mmHg 80%
    06:00 +6°C° 0 mm 2 m/S 771 mmHg 80%
    07:00 +7°C° 0 mm 2 m/S 772 mmHg 73%
    08:00 +9°C° 0 mm 2 m/S 772 mmHg 66%
    09:00 +12°C° 0 mm 2 m/S 773 mmHg 59%
    10:00 +13°C° 0 mm 2 m/S 772 mmHg 54%
    11:00 +14°C° 0 mm 2 m/S 772 mmHg 50%
    12:00 +15°C° 0 mm 2 m/S 772 mmHg 45%
    13:00 +15°C° 0 mm 1 m/S 772 mmHg 45%
    14:00 +15°C° 0 mm 1 m/S 771 mmHg 45%
    15:00 +15°C° 0 mm 1 m/S 771 mmHg 45%
    16:00 +13°C° 0 mm 1 m/S 772 mmHg 51%
    17:00 +12°C° 0 mm 2 m/S 772 mmHg 58%
    18:00 +9°C° 0 mm 2 m/S 772 mmHg 64%
    19:00 +9°C° 0 mm 2 m/S 772 mmHg 66%
    20:00 +8°C° 0 mm 2 m/S 773 mmHg 68%
    21:00 +8°C° 0 mm 2 m/S 773 mmHg 70%
    22:00 +8°C° 0 mm 2 m/S 773 mmHg 71%
    23:00 +7°C° 0 mm 2 m/S 773 mmHg 73%

    1 Juni, Donnerstag

    Zeit Temperatur Niederschläge Wind Luftdruck Luftfeuchtigkeit
    00:00 +7°C° 0 mm 2 m/S 773 mmHg 74%
    01:00 +7°C° 0 mm 2 m/S 773 mmHg 74%
    02:00 +7°C° 0 mm 2 m/S 773 mmHg 74%
    03:00 +5°C° 0 mm 3 m/S 773 mmHg 75%
    04:00 +6°C° 0 mm 2 m/S 773 mmHg 75%
    05:00 +6°C° 0 mm 2 m/S 773 mmHg 76%
    06:00 +6°C° 0 mm 2 m/S 773 mmHg 76%
    07:00 +7°C° 0 mm 3 m/S 773 mmHg 70%
    08:00 +9°C° 0 mm 3 m/S 774 mmHg 63%
    09:00 +10°C° 0 mm 3 m/S 774 mmHg 57%
    10:00 +11°C° 0 mm 3 m/S 774 mmHg 52%
    11:00 +14°C° 0 mm 2 m/S 773 mmHg 47%
    12:00 +15°C° 0 mm 2 m/S 773 mmHg 43%
    13:00 +15°C° 0 mm 2 m/S 772 mmHg 42%
    14:00 +15°C° 0 mm 1 m/S 772 mmHg 41%
    15:00 +16°C° 0 mm 1 m/S 772 mmHg 40%
    16:00 +13°C° 0 mm 1 m/S 772 mmHg 48%
    17:00 +11°C° 0 mm 1 m/S 772 mmHg 55%
    18:00 +9°C° 0 mm 1 m/S 772 mmHg 62%
    19:00 +8°C° 0 mm 2 m/S 772 mmHg 63%
    20:00 +8°C° 0 mm 2 m/S 773 mmHg 63%
    21:00 +8°C° 0 mm 2 m/S 773 mmHg 63%
    22:00 +8°C° 0 mm 2 m/S 773 mmHg 63%
    23:00 +8°C° 0 mm 2 m/S 772 mmHg 63%

    2 Juni, Freitag

    Zeit Temperatur Niederschläge Wind Luftdruck Luftfeuchtigkeit
    00:00 +8°C° 0 mm 3 m/S 772 mmHg 63%
    01:00 +7°C° 0 mm 3 m/S 772 mmHg 64%
    02:00 +7°C° 0 mm 2 m/S 772 mmHg 65%
    03:00 +7°C° 0 mm 2 m/S 772 mmHg 65%
    04:00 +7°C° 0 mm 2 m/S 772 mmHg 66%
    05:00 +7°C° 0 mm 2 m/S 772 mmHg 66%
    06:00 +7°C° 0 mm 2 m/S 773 mmHg 66%
    07:00 +8°C° 0 mm 2 m/S 773 mmHg 61%
    08:00 +9°C° 0 mm 2 m/S 773 mmHg 56%
    09:00 +12°C° 0 mm 2 m/S 773 mmHg 51%
    10:00 +13°C° 0 mm 2 m/S 773 mmHg 46%
    11:00 +15°C° 0 mm 2 m/S 772 mmHg 41%
    12:00 +16°C° 0 mm 2 m/S 772 mmHg 37%
    13:00 +18°C° 0 mm 1 m/S 772 mmHg 36%
    14:00 +18°C° 0 mm 1 m/S 771 mmHg 36%
    15:00 +18°C° 0 mm 1 m/S 771 mmHg 36%
    16:00 +14°C° 0 mm 1 m/S 771 mmHg 45%
    17:00 +12°C° 0 mm 1 m/S 771 mmHg 55%
    18:00 +9°C° 0 mm 1 m/S 772 mmHg 64%
    19:00 +9°C° 0 mm 1 m/S 772 mmHg 63%
    20:00 +9°C° 0 mm 2 m/S 772 mmHg 62%
    21:00 +9°C° 0 mm 2 m/S 772 mmHg 61%
    22:00 +8°C° 0 mm 2 m/S 772 mmHg 61%
    23:00 +8°C° 0 mm 2 m/S 772 mmHg 62%

    3 Juni, Samstag

    Zeit Temperatur Niederschläge Wind Luftdruck Luftfeuchtigkeit
    00:00 +8°C° 0 mm 2 m/S 771 mmHg 62%
    01:00 +8°C° 0 mm 2 m/S 771 mmHg 62%
    02:00 +8°C° 0 mm 2 m/S 771 mmHg 63%
    03:00 +7°C° 0 mm 2 m/S 771 mmHg 63%
    04:00 +7°C° 0 mm 2 m/S 771 mmHg 63%
    05:00 +7°C° 0 mm 2 m/S 771 mmHg 63%
    06:00 +7°C° 0 mm 2 m/S 771 mmHg 62%
    07:00 +8°C° 0 mm 2 m/S 771 mmHg 57%
    08:00 +10°C° 0 mm 2 m/S 771 mmHg 52%
    09:00 +11°C° 0 mm 3 m/S 771 mmHg 47%
    10:00 +14°C° 0 mm 2 m/S 771 mmHg 42%
    11:00 +15°C° 0 mm 2 m/S 770 mmHg 38%
    12:00 +17°C° 0 mm 2 m/S 770 mmHg 34%
    13:00 +17°C° 0 mm 2 m/S 769 mmHg 34%
    14:00 +18°C° 0 mm 1 m/S 769 mmHg 33%
    15:00 +18°C° 0 mm 1 m/S 768 mmHg 33%
    16:00 +15°C° 0 mm 1 m/S 768 mmHg 39%
    17:00 +12°C° 0 mm 1 m/S 768 mmHg 46%
    18:00 +10°C° 0 mm 1 m/S 768 mmHg 52%
    19:00 +9°C° 0 mm 2 m/S 768 mmHg 51%
    20:00 +9°C° 0 mm 2 m/S 768 mmHg 51%
    21:00 +9°C° 0 mm 2 m/S 768 mmHg 50%
    22:00 +9°C° 0 mm 2 m/S 768 mmHg 50%
    23:00 +9°C° 0 mm 3 m/S 767 mmHg 49%
    Mehr zeigen